Погода в Язвихе

Россия / Тверская область     57°21′39″N   35°32′26″E
темп.,
°C
ветер,
м/с
пор.,
м/с
влажн.,
%
обл.,
%
осадки,
мм/ч
давл.,
гПа
погр.,
м
13 апреля, вт
вт1300:00+9юв3982100 0.0 1026299
03:00+7юв3893100 0.0 1025207
06:00+7юв2796100 0.0 1024164
09:00+11ю3780100 0.0 1023308
12:00+16ю4859100 0.0 1022726
15:00+19ю5849100 0.0 10211411
18:00+17ююв3859100 0.0 1020275
21:00+12ююв3107570 0.0 1020199
14 апреля, ср
ср1400:00+10ююв3117471 0.0 1020243
03:00+8ююв278269 0.0 1019131
06:00+8ююв2981100 0.0 1019207
09:00+13ю4106635 0.0 1018407
12:00+17ююз5957100 0.0 10181326
15:00+18ююз484736 0.0 10172041
18:00+16ююз375791 0.0 1017449
21:00+12ю1280100 0.4 101834
15 апреля, чт
чт1500:00+10с1292100 0.2 101852
03:00+9св3798100 0.2 1018196
06:00+9св4997100 0.0 1018373
09:00+10св4787100 0.0 1019454
12:00+11св567976 0.0 1020671
15:00+10св577798 0.0 1020769
18:00+8св51083100 0.0 1021616
21:00
16 апреля, пт
пт1600:00+5св5128982 0.0 1023466
03:00+4св5129180 0.0 1023447
06:00+3св5139345 0.0 1023430
09:00+6св5107958 0.0 1024536
12:00+10св586165 0.0 1024873
15:00+11св67526 0.0 10241133
18:00+10св59487 0.0 1025978
21:00+5св51358100 0.0 1028527
17 апреля, сб
сб1700:00+4св413695 0.0 1028436
03:00+3св412765 0.0 1028343
06:00+2св4127899 0.0 1030320
09:00+6всв51057100 0.0 1030619
12:00+10всв573945 0.0 10301303
15:00+11св57395 0.0 10311516
18:00+10св57502 0.0 10311279
21:00+5св311660 0.0 1032334